Regional Weather Roundup
Issued by NWS

Home | Current Version | Previous Version | Text Only | Print | Product List | Glossary On
Versions: 1 2 3 4 5 6 7 8 9 10 11 12 13 14 15 16 17 18 19 20 21 22 23 24 25 26 27 28 29 30 31 32 33 34 35 36 37 38 39 40 41 42 43 44 45 46 47 48 49 50
000
ASUS43 KLOT 281121
RWRIL

ILLINOIS REGIONAL WEATHER ROUNDUP
NATIONAL WEATHER SERVICE CHICAGO/ROMEOVILLE IL
600 AM CDT SAT MAR 28 2015

NOTE: "FAIR" INDICATES FEW OR NO CLOUDS BELOW 12,000 FEET WITH NO
SIGNIFICANT WEATHER AND/OR OBSTRUCTIONS TO VISIBILITY.

* THESE STATIONS ARE NOT UNDER NWS QUALITY CONTROL. THEY ALSO MAY NOT
  REPORT WEATHER SUCH AS PRECIPITATION OR FOG.

ILZ001-002-007-009-015-016-024-281200-
NORTHWEST ILLINOIS

CITY           SKY/WX    TMP DP  RH WIND       PRES   REMARKS
MOLINE         PTCLDY    17  12  80 E6        30.26R WCI   9
STERLING*      PTCLDY    19  16  86 CALM      30.27R
SAVANNA*       CLEAR     20  15  79 CALM      30.26R
$$

ILZ003-004-008-010-011-017-018-281200-
NORTH CENTRAL ILLINOIS

CITY           SKY/WX    TMP DP  RH WIND       PRES   REMARKS
ROCKFORD       CLEAR     16  11  80 NE3       30.28R
FREEPORT*      CLEAR     15  13  90 CALM      30.28R
ROCHELLE*      CLEAR     18  15  89 CALM      30.26R
DE KALB*       CLEAR     15  11  83 CALM      30.25R
PERU*          CLEAR     19  16  85 NE3       30.27R
$$

ILZ005-006-012>014-019>023-281200-
NORTHEAST ILLINOIS

CITY           SKY/WX    TMP DP  RH WIND       PRES   REMARKS
CHICAGO-OHARE  CLEAR     20  13  74 N6        30.25R WCI  12
CHICAGO-MIDWAY CLEAR     23  14  68 N3        30.26R
AURORA         CLEAR     16  11  80 NW5       30.26R WCI   9
LANSING*       CLEAR     22  10  57 NE5       30.25R WCI  16
JOLIET*        CLEAR     20  16  84 N3        30.27R
WAUKEGAN       CLEAR     15  12  88 NW5       30.26R WCI   8
DUPAGE AIRPORT CLEAR     15  10  80 N3        30.25R
KANKAKEE*      CLEAR     22  17  81 N3        30.26R
WHEELING       CLEAR     20  14  77 NE3       30.27R
MORRIS*        CLEAR     18  13  80 CALM      30.26R
ROMEOVILLE*    CLEAR     19  14  79 N5        30.26R WCI  13
NORTHERLY ISL    N/A     24  10  55 N8          N/A  WCI  15
$$

LMZ740>746-281200-
SOUTHERN LAKE MICHIGAN

STATION/POSITION SKY/WX   TEMP    WIND        PRES    VSBY  WAVE
                          AIR SEA DIR/SP/G                  HT/PER
                          (F)     (DEG/KT/KT) (MB)    (MI)  (FT/S)
HARRISON CRIB              25      30/ 11/ 14   N/A
BURNHAM HARBOR             25      40/  7/ 12   N/A
CALUMET HARBOR             25      10/  8/ 12 1022.8R
BURNS HARBOR               24      50/  9/ 13 1024.4R
MICHIGAN CITY              18      70/  7/  8   N/A
$$

ILZ025>027-034>036-040-047-049-050-058-095>099-281200-
WEST-CENTRAL ILLINOIS

CITY           SKY/WX    TMP DP  RH WIND       PRES   REMARKS
QUINCY         PTCLDY    26  16  65 E7        30.22R WCI  18
GALESBURG*     PTCLDY    21  17  83 E3        30.25R
MACOMB*        PTCLDY    22  19  87 SE3       30.27R
JACKSONVILLE*  PTCLDY    25  20  82 E6        30.25R WCI  18
PITTSFIELD*    PTCLDY    27  19  72 E3        30.24R
$$

ILZ028>032-037-038-041>044-048-051>054-059>061-281200-
CENTRAL ILLINOIS

CITY           SKY/WX    TMP DP  RH WIND       PRES   REMARKS
PONTIAC        CLEAR     18  16  90 CALM      30.26R
BLOOMINGTON    CLEAR     20  15  81 CALM      30.25R
DECATUR        CLEAR     21  16  81 CALM      30.25R
PEORIA         CLEAR     23  13  65 CALM      30.27R
LACON*         CLEAR     17  14  86 CALM      30.26R
LINCOLN*       PTCLDY    21  18  89 CALM      30.27R
SPRINGFIELD    PTCLDY    23  17  78 E5        30.25R WCI  17
TAYLORVILLE    PTCLDY    23  18  80 E7        30.25R WCI  15
$$

ILZ033-039-045-046-055>057-062-063-281200-
EAST-CENTRAL ILLINOIS

CITY           SKY/WX    TMP DP  RH WIND       PRES   REMARKS
CHAMPAIGN      CLEAR     19  14  81 CALM      30.24R
DANVILLE*      CLEAR     17  14  89 NW6       30.22R WCI   8
RANTOUL*       CLEAR     22  16  80 CALM      30.24R
MATTOON        CLEAR     21  14  74 NE5       30.23R WCI  15
PARIS*         CLEAR     20  17  86 CALM      30.24S
$$

ILZ079-100>102-281200-
SOUTHWEST ILLINOIS

CITY           SKY/WX    TMP DP  RH WIND       PRES   REMARKS
ALTON          PTCLDY    28  21  75 NE5       30.24R WCI  22
BELLEVILLE     PTCLDY    25  21  84 NE1       30.23R
CAHOKIA*       PTCLDY    28  22  78 CALM      30.24R
SPARTA*        PTCLDY    27  20  76 CALM      30.24R
$$

ILZ064>066-069>071-074>076-080>082-084>086-088>090-092>094-281200-
SOUTH-CENTRAL ILLINOIS

CITY           SKY/WX    TMP DP  RH WIND       PRES   REMARKS
CARBONDALE     PTCLDY    25  21  85 CALM      30.23R
CAIRO*         PTCLDY    29  24  81 NE6       30.22R WCI  23
EFFINGHAM*     CLEAR     24  15  68 CALM      30.26R
MARION         PTCLDY    25  21  86 CALM      30.23R
MT. VERNON     PTCLDY    23  16  74 N5        30.25R WCI  17
CENTRALIA*     CLEAR     25  19  79 E5        30.24R WCI  19
SALEM*         CLEAR     27  21  77 NE3       30.24R
METROPOLIS*    CLEAR     25  25 100 CALM      30.22R
$$

ILZ067-068-072-073-078-083-087-091-281200-
SOUTHEAST ILLINOIS

CITY           SKY/WX    TMP DP  RH WIND       PRES   REMARKS
LAWRENCEVILLE  CLEAR     22  15  75 N8        30.25R WCI  12
FLORA*         CLEAR     25  19  80 NE3       30.25R
FAIRFIELD*     CLEAR     25  19  77 NE3       30.24R
HARRISBURG*    CLEAR     26  22  85 NE6       30.24R WCI  19
ROBINSON*      CLEAR     22  16  77 N9        30.26R WCI  12
CARMI*         CLEAR     25  19  78 N5        30.23R WCI  19
$$

ABBREVIATIONS USED IN REMARKS
   TC - TEMPERATURE IN CELSIUS
  WCI - WIND CHILL INDEX
   HX - HEAT INDEX
  VSB - VISIBILITY
$$



USA.gov is the U.S. government's official web portal to all federal, state and local government web resources and services.